Location: Albany
(35.0170°S, 117.8920°E)
Time: 01:22:22
(UTC+08:00)

Explorer 7 - Pass Details

Date: 31 January 2021
Orbit: 484 x 677 km, 50.3° (Epoch: 01 March)

Event Time Altitude Azimuth Distance (km) Brightness Sun altitude
Rises 20:22:18 0° 230° (SW) 2,955 12.5 -12.8°
Reaches altitude 10° 20:24:43 10° 229° (SW) 2,011 11.1 -13.3°
Maximum altitude 20:29:20 88° 148° (SSE) 605 7.0 -14.1°
Enters shadow 20:31:53 24° 50° (NE) 1,205 7.9 -14.5°
Drops below altitude 10° 20:33:38 10° 49° (NE) 1,867 - -14.8°
Sets 20:35:48 0° 49° (NE) 2,724 - -15.2°
